カタログに戻る

STARLINK-3897

運用中通信VLEO
NORAD 52537·PAYLOAD·🇺🇸 United States

打ち上げ May 13, 2022 から Vandenberg Space Force Base

Loading…

次のパス (今後24時間)

TLE

最新Source: CelesTrak SupGP

元期: Sep 14, 2026, 22:02 UTC

1 52537C 22051E   26257.91854167 -.00033412  00000+0 -98726-3 0  2571
2 52537  53.1599 348.1662 0001324  79.7123 275.4192 15.34403729    14

AllMySatでSTARLINK-3897をリアルタイム追跡

Download on the App Store